Regional Weather Roundup
Issued by NWS Goodland, KS

Home | Current Version | Previous Version | Text Only | Print | Product List | Glossary Off
Versions: 1 2 3 4 5 6 7 8 9 10 11 12 13 14 15 16 17 18 19 20 21 22 23 24 25 26 27 28 29 30 31 32 33 34 35 36 37 38 39 40 41 42 43 44 45 46 47 48 49 50

000
ASUS43 KGLD 070208
RWRGLD

GOODLAND FORECAST AREA HOURLY WEATHER ROUNDUP
NATIONAL WEATHER SERVICE GOODLAND KS
700 PM MST SAT FEB 06 2016

...OFFICIAL OBSERVATIONS...

CITY           SKY/WX    TMP DP  RH WIND       PRES   REMARKS
GOODLAND KS    CLOUDY    37  22  54 W17       30.06F
HILL CITY KS   PTCLDY    38  28  67 SW9       30.04F
IMPERIAL NEB   CLOUDY    33  25  72 W13       30.01S
MCCOOK NEB     CLOUDY    37  25  61 SW13      30.01F
AKRON CO       CLOUDY    34  24  67 W14       30.06R
BURLINGTON CO  CLOUDY    32  20  61 SW17      30.07F
LIMON CO       CLOUDY    14  10  84 N7        30.12S
$$

...UNOFFICIAL OBSERVATIONS...

CITY           SKY/WX    TMP DP  RH WIND       PRES   REMARKS
COLBY KS       CLEAR     36  30  80 SW13      30.06S
GOVE KS          N/A     37  32  82 MISG        N/A
LENORA KS        N/A     38  32  79 MISG        N/A
NORTON KS      CLEAR     36  27  69 SW12      30.02S
SHARON SPRINGS   N/A     34  27  76 SW12        N/A
KIT CARSON CO    N/A     30  22  72 MISG        N/A
YUMA CO          N/A     34  26  71 W13         N/A
$$



USA.gov is the U.S. government's official web portal to all federal, state and local government web resources and services.